Find Starlink 32821

NORAD ID: 63078 Int'l Des: 2025-037 Owner: SPXS Country: US Constellation: starlink operational
LEOCIRCULAR

リアルタイム位置

3D地球を読み込み中...

Starlink 32821について

説明を読み込み中...

次回通過

Passes for default location (London). Set your location on the main map for personalized predictions.

高度履歴

Loading altitude history...

軌道要素

1 63078U 25037B 26122.38967819 .00003019 00000-0 26071-3 0 9997
2 63078 70.0051 219.1377 0002250 273.0767 87.0135 14.98332217 66624
Epoch: May 2, 2026 • Age: 11 hours

現在のステータス

高度 586.7 km
速度 7.57 km/s
衛星直下点 -42.65°S, 32.3°E
打ち上げ日 Feb 23, 2025
運用期間 1.1 years
タイプ internet

技術仕様

分類 Payload
質量 730.00 kg
乾燥質量 700.00 kg
総質量 730.00 kg
長さ 0.30 m
直径 4.10 m
スパン 29.00 m
形状 Box + pan
製造者 SPXS
バスタイプ Starlink V2M
フェーズステータス In Orbit
所有者/国 SPXS/US

Most Searched